カタログに戻る

DELTA 1 DEB

運用中SSO
NORAD 7173·DEBRIS·🇺🇸 United States

打ち上げ Nov 6, 1973 から Vandenberg Space Force Base

Loading…

次のパス (今後24時間)

TLE

最新Source: Space-Track

元期: Sep 14, 2026, 08:00 UTC

1 07173U 73086EK  26257.33355120  .00000072  00000-0  95378-3 0  9990
2 07173 102.5604  45.9852 0223977 318.2820  68.9915 12.28306998188851

AllMySatでDELTA 1 DEBをリアルタイム追跡

Download on the App Store